Regional Weather Roundup
Issued by NWS Midland/Odessa, TX

Skip options and go directly to product.
Home | Oldest Version | Previous Version | Current Version | All | Text Only | Save Text | Print | Product List | Glossary On

Skip product version selection by date and time.   
468
ASUS44 KMAF 290410
RWRMAF
MIDLAND AREA WEATHER ROUNDUP
NATIONAL WEATHER SERVICE MIDLAND TX
1100 PM CDT THU JUL 28 2016

...IN SOUTHWEST TEXAS AND SOUTHEAST NEW MEXICO...

CITY           SKY/WX    TMP DP  RH WIND       PRES   REMARKS
ALPINE         CLEAR     74  58  56 E7        30.20R
ANDREWS        FAIR      79  63  57 SE15G23   30.08R
ARTESIA        CLEAR     84  57  39 S9        30.04R
BIG SPRING     MOCLDY    78  66  67 SE6       30.07S
CARLSBAD       CLEAR     82  58  43 S6        30.01R
DRYDEN           N/A     81  65  58 SE9       30.01R
FORT STOCKTON  PTCLDY    81  62  52 S12       30.05R
GUAD PASS      CLEAR     75  54  47 NE13      30.20R
HOBBS          CLEAR     79  55  44 SE6       30.09R
MARFA          CLEAR     70  56  61 N3        30.18R
MIDLAND AIRPK  CLOUDY    78  65  65 S12       30.07R
MIDLAND INTL   CLOUDY    75  67  76 S13       30.06R
ODESSA         CLOUDY    76  66  71 S14       30.08R
PECOS          CLEAR     87  61  41 SE13      30.00R
PRESIDIO       FAIR      84  63  48 E9        30.00R
SEMINOLE       CLEAR     80  60  50 SE15      30.08R
SNYDER           N/A     78  67  68 S6        30.04R
WINK           PTCLDY    84  61  45 SE24G31   30.01R
$$
...OTHER STATIONS IN TEXAS...

CITY           SKY/WX    TMP DP  RH WIND       PRES   REMARKS
ABILENE        CLEAR     79  66  64 SE3       30.00R
AMARILLO       CLEAR     79  60  52 SE14      30.05R
AUSTIN         PTCLDY    75  73  93 S3        29.99R
BROWNSVILLE    CLEAR     83  78  85 E8        29.97R
CORPUS CHRISTI PTCLDY    82  77  84 SE7       29.97R
DALLAS FTW     CLOUDY    80  71  74 S9        29.94R
DEL RIO        PTCLDY    78  70  76 E8        30.00R
EL PASO        MOCLDY    89  51  27 E10       30.03R
HOUSTON INT    PTCLDY    78  75  90 S3        29.99R
LUBBOCK        PTCLDY    83  62  49 S7        30.06R
SAN ANGELO     CLEAR     84  57  39 SE8       29.99R
SAN ANTONIO    MOCLDY    77  67  71 W5        29.99S
WACO           CLOUDY    82  68  62 S15       29.96F
WICHITA FALLS  NOT AVBL
$$
...OTHER LOCATIONS IN NEW MEXICO...

CITY           SKY/WX    TMP DP  RH WIND       PRES   REMARKS
ALAMAGORDO     CLEAR     86  46  25 E14       30.06R
ALBUQUERQUE    CLOUDY    85  48  27 W5        30.13R
CANNON AFB     CLEAR     76  56  48 SE10      30.11R
CLOVIS         CLEAR     72  54  53 SE8       30.12R
HOLLOMAN AFB   CLEAR     89  47  23 SE7       30.03R
ROSWELL        CLEAR     85  57  38 S9        30.04R
RUIDOSO          N/A     68  46  45 S8        30.31S
SANTA FE       CLOUDY    78  36  21 SE7       30.20R
TRUTH OR CONSE CLEAR     89  47  23 CALM      30.08R
TUCUMCARI      CLEAR     80  52  37 SE7       30.06R
$$

USA.gov is the U.S. government's official web portal to all federal, state and local government web resources and services.